User: anonymous   Login
Location: Pine Mountain Observatory
(43.7910°N, 120.9377°W)
Time: 03:00:42
(UTC-08:00)
Language:

Cosmos 1867 - Orbit

View from above orbital plane
View from above orbital plane
View from above satellite
View from above satellite

Ground track
Ground track

The orbit data is extracted from the following two-line orbital elements,

1 18187U 87060A   14331.15667257  .00000044  00000-0  54549-4 0  2304
2 18187 065.0115 319.9024 0013696 269.7285 090.2230 14.31036494430487
Epoch (UTC): 27 November 2014 03:45:36
Eccentricity: 0.0013696
inclination: 65.0115°
perigee height: 778 km
apogee height: 798 km
right ascension of ascending node: 319.9024°
argument of perigee: 269.7285°
revolutions per day: 14.31036494
mean anomaly at epoch: 90.2230°
orbit number at epoch: 43048

The dashed part of the orbit path shows where the satellite is in the earth's shadow,  

DLR